Location: Unspecified
(0.0000°N, 0.0000°E)
Time: 16:55:04
(UTC+00:00)

Tiangong 2 - Pass Details

Date: 09 December 2018
Orbit: 382 x 391 km, 42.8° (Epoch: 12 December)

Event Time Altitude Azimuth Distance (km) Brightness Sun altitude
Rises 20:03:17 0° 235° (SW) 2,249 6.1 -29.9°
Reaches altitude 10° 20:05:25 10° 242° (WSW) 1,393 4.8 -30.3°
Enters shadow 20:05:38 11° 243° (WSW) 1,314 4.6 -30.4°
